Location: Oakhurst
(33.6448°N, 111.9543°W)
Time: 22:37:03
(UTC+00:00)

Max Valier Satellite - Pass Details

Date: 01 August 2021
Orbit: 486 x 501 km, 97.2° (Epoch: 15 September)

Event Time Altitude Azimuth Distance (km) Brightness Sun altitude
Exits shadow 03:54:12 22° 178° (S) 1,108 ? -16.5°
Maximum altitude 03:56:25 72° 259° (W) 516 ? -16.8°
Drops below altitude 10° 04:00:01 10° 344° (NNW) 1,679 ? -17.4°
Sets 04:02:06 0° 347° (NNW) 2,566 ? -17.8°
